AQI (34)

Current Conditions for Foresthill, CA. Dusk, Clear skies, Dry   
Visibility: 10 miles
Foresthill Advisory text:

  Summary / Temperature 

Current Temperature
48.8°F
9.3°C
(24/hr Ago)
52.9°F
(Apparent temp)
43.6°F
Cool
Wind Chill Graphs
48.9°F 

48.8°F/ 9.3°C
 --- Virtual Temp: 49.6°F ---

 Temp Rate:

 24/hr Difference:

 Avg Running Temp:

 Todays High:

 Todays Low:

 Y-days High:

 Y-days Low:

 Todays WChill:

 Y-days WChill:

 Evapotranspiration:

-0.9°F/hr 

-4.1°F

50.2°F

51.9°F 2:02pm

42.8°F 7:50am

62.1°F 1:18pm

47.9°F 11:57pm

35.3°F 6:52am

43.4°F 10:13pm

0.066 in

115' Above Ground

 Temperature:

 6'AGL VRS 115'AGL:

 Avg Running Temp:

 Humidity:

 Todays High:

 Todays Low:

 Y-days High:

 Y-days Low:

50.0°F 

+1.2°F

51.6°F

23% 

53.0°F 12:58pm

45.0°F 8:56am

65.0°F 12:16pm

48.0°F 11:45pm

Temp & Humidity Graphs

  Wind 

Wind Speed

 15.0 mph

Gusting to

 18.0 mph

Wind from ENE

73°  ENE

Moderate breeze

 Avg speed:

 Wind Run:

 Peak Gust:

Calm 

36.0 miles

  30.0 mph 3:39pm

  Almanac  

Moon age: 28 days,9 hours,58 minutes,2%

Waning Crescent
2%
Illuminated
28 days in cycle

 Moonrise:

 Moonset:

 Sunrise:

 Sunset:

 Solar Noon:

5:39am

4:02pm

7:14am

4:41pm

12:00pm

0min 19s less daylight tomorrow 

  Solar Radiation 

(Current Solar)
  12 W/m2
(Todays High)
 517 W/m2@11:41am
Feels like: 45.9°F in the sun

Rain

 Rain Today:

 Rain Rate (/hr):

 Rain last hour:

 Rain Yesterday:

 This Month:

 Season Total:

12 Days Since Last Rain Day

0.00 in

0.000 in

0.00 in

0.00 in

0.32 in

12.81 in

Updated Time

Updated: 12/16/17  4:34pm

(Updated  sec ago)

Humidity & Barometer

 Humidity:

 Wetbulb:

 Dew Point:

 Barometer:

28% 

40.0°F 

17.1°F 

29.957 inHg 

 Baro Trend:  Steady 
Northern Calif
Preparedness
Fire 
Level 

    UV Index  

(Current UV)
0.0  None
(Todays High) @ 11:47am
1.7   Low

National Weather Service Forecast

This
Afternoon
This Afternoon: Sunny
Sunny
Tonight

Tonight: Clear
Clear
Sunday

Sunday: Sunny
Sunny
Sunday
Night
Sunday Night: Mostly Clear
Mostly Clear
Monday

Monday: Sunny
Sunny
Monday
Night
Monday Night: Partly Cloudy
Partly Cloudy
Hi 50 °F Lo 39 °F Hi 56 °F Lo 43 °F Hi 57 °F Lo 43 °F

Foresthill Probe 2 Stats  
Foresthill Probe 2: is located on Thomas Street
at 3000 feet. The main Foresthill Weather site
is located on Melody ln at the 2860 foot elevation

Light Air
47.0°F
8.3°C
Temp Rate:
-1.2°F
2.0 mph
Gusting to
13.0 mph
(Humidity)
27%
Wind from N
350°  N
Updated: 16/12/17 - 16:31:29
 Todays High: 50.6°F 13:44
 Todays Low: 42.4°F 02:34
 Rain Today: 0.00 in
 Season Total: 13.55 in

Foresthill Wx: Monthly,Yearly, Highs and Lows 

Foresthill  
This Weather Data is coming from the main Foresthill
Weather site located on Melody ln at the 2860 foot
elevation
Not Foresthill Probe 2
Weather Data
Month
  High
Month
  Low
Year
High
Year
Low
Temp 63.8°F
12/7/17
33.6°F
12/3/17
100.8°F
8/28/17
27.6°F
2/24/17
Humidity 95%
12/3/17
20%
12/5/17
100%
1/1/17
12%
8/30/17
Heat Index 63.3°F
12/7/17
35.2°F
12/4/17
97.6°F
6/19/17
32.5°F
2/24/17
Wind Chill 63.8°F
12/7/17
23.3°F
12/4/17
100.8°F
8/28/17
14.0°F
2/24/17
Wind Gust 37 mph
12/4/17
0 mph
12/1/17
53 mph
10/8/17
0 mph
1/1/17
Barometer 30.51 in
12/7/17
29.90 in
12/16/17
30.69 in
1/27/17
29.29 in
2/17/17
ET 0.10 in
12/7/17
0.00 in
12/1/17
0.28 in
7/17/17
0.00 in
1/1/17
Dew Point 45.5°F
12/14/17
10.4°F
12/5/17
69.7°F
6/19/17
10.4°F
12/5/17
Pacific Satellite US Radar Satellite Imagery Sacramento,CA.  (click to enlarge)
NWS Weather Forecast - Summary
Updated: Sat Dec 16, 2017 - 3:35pm (PST)
Current Interstate Highway Conditions for I-80 & US-50

[I 80: IN THE SAN FRANCISCO BAY AREA - SOLANO CO]
  A high wind advisory is in effect at the san francisco-oakland bay bridge /in san francisco/ (san francisco,alameda co) - travel is not recommended for campers, trailers or permit loads
  A high wind advisory is in effect at the carquinez bridge /in vallejo/ (contra costa,SOLANO CO) - travel is not recommended for campers, trailers or permit loads
  A high wind advisory is in effect from the jct of i 680 to suisun creek /in fairfield/ - travel is not recommended for campers, trailers or permit loads


[I 80: IN THE NORTHERN CALIFORNIA AREA & SIERRA NEVADA]
westbound traffic is reduced to 1 lane at the yolo causeway (yolo co) - due to a traffic collision

[US 50: IN THE SACRAMENTO VALLEY & THE LAKE TAHOE BASIN]
  1-way controlled traffic at various locations from pyramid creek /in twin bridges/ to 1. 3 mi east of twin bridges /at mt ralston rd/ (EL DORADO CO) from 7:00am to 5:00pm monday thru thursday thru 12/22/17 - due to maintenance
NWS Weather Forecast: This Afternoon and Tonight (Updated: Sat, 16-Dec-2017 2:56pm PST)
This
Afternoon
This Afternoon: Sunny
Sunny

Hi 50 °F
NWS forecast: Sunny. High near 50, with temperatures falling to around 45 in the afternoon. North wind around 10 mph.
Tonight

Tonight: Clear
Clear

Lo 39 °F
NWS forecast: Clear, with a low around 39. East northeast wind around 10 mph.
YR.NO 10 Day Weather forecast
Last update: 12/16/2017 @ 11:43
Next update: 12/17/2017 @ 00:00
Provided by: 22
      Temperature Precipitation Pressure Wind  
Today
12/16/2017
15:00 18:00 48°F   29.92 inHg Light breeze from north-northeast 7 mph
  18:00 00:00 37°F   29.96 inHg Light breeze from north-northwest 7 mph
    (Click to enlarge)
meteogram

    Forecast for next 9 days

      Temperature Precip Pressure Wind  
Sunday
12/17/2017
00:00 06:00 37°F   29.98 inHg Gentle breeze from northeast 8 mph
  06:00 12:00 36°F   30.00 inHg Gentle breeze from northeast 8 mph
  12:00 18:00 55°F   29.96 inHg Light breeze from northeast 5 mph
  18:00 00:00 45°F   30.04 inHg Calm from east-northeast 0 mph
      Temperature Precip Pressure Wind  
Monday
12/18/2017
00:00 06:00 36°F   30.12 inHg Light breeze from east-northeast 4 mph
  06:00 12:00 32°F   30.18 inHg Light breeze from east-northeast 5 mph
  12:00 18:00 54°F   30.20 inHg Light air from southwest 3 mph
  18:00 00:00 43°F   30.19 inHg Light air from east-northeast 2 mph
      Temperature Precip Pressure Wind  
Tuesday
12/19/2017
00:00 06:00 32°F   30.22 inHg Light breeze from east-northeast 4 mph
  04:00 10:00 30°F   30.18 inHg Light breeze from east-northeast 4 mph
  10:00 16:00 52°F   30.24 inHg Light air from east 2 mph
  16:00 22:00 50°F   30.14 inHg Light air from west-southwest 2 mph
  22:00 04:00 43°F   30.15 inHg Light breeze from east-southeast 6 mph
      Temperature Precip Pressure Wind  
Wednesday
12/20/2017
04:00 10:00 39°F 0.48 in 30.14 inHg Gentle breeze from south-southeast 10 mph
  10:00 16:00 37°F   30.22 inHg Light air from west-northwest 3 mph
  16:00 22:00 41°F   30.18 inHg Light breeze from west-northwest 7 mph
  22:00 04:00 28°F   30.24 inHg Light breeze from north-northeast 7 mph
      Temperature Precip Pressure Wind  
Thursday
12/21/2017
04:00 10:00 30°F   30.20 inHg Light breeze from north-northwest 4 mph
  10:00 16:00 43°F   30.24 inHg Light breeze from northeast 6 mph
  16:00 22:00 45°F   30.17 inHg Light air from west 3 mph
  22:00 04:00 27°F   30.26 inHg Light breeze from east-northeast 6 mph
      Temperature Precip Pressure Wind  
Friday
12/22/2017
04:00 10:00 25°F   30.29 inHg Light breeze from east-northeast 4 mph
  10:00 16:00 46°F   30.32 inHg Light air from south-southeast 1 mph
  16:00 22:00 45°F   30.20 inHg Light air from west-southwest 2 mph
  22:00 04:00 30°F   30.21 inHg Light air from east-northeast 2 mph
      Temperature Precip Pressure Wind  
Saturday
12/23/2017
04:00 10:00 32°F   30.13 inHg Light air from east-northeast 3 mph
  10:00 16:00 46°F   30.12 inHg Calm from west-northwest 0 mph
  16:00 22:00 43°F   30.06 inHg Light air from north-northwest 1 mph
  22:00 04:00 34°F   30.12 inHg Moderate breeze from east-northeast 14 mph
      Temperature Precip Pressure Wind  
Sunday
12/24/2017
04:00 10:00 32°F   30.10 inHg Gentle breeze from east-northeast 9 mph
  10:00 16:00 39°F   30.18 inHg Light breeze from east-northeast 6 mph
  16:00 22:00 39°F   30.15 inHg Light breeze from east-northeast 7 mph
  22:00 04:00 30°F   30.24 inHg Moderate breeze from east-northeast 15 mph
      Temperature Precip Pressure Wind  
Monday
12/25/2017
04:00 10:00 28°F   30.29 inHg Moderate breeze from east-northeast 13 mph
  10:00 16:00 39°F   30.33 inHg Light breeze from east-northeast 7 mph
  16:00 22:00 41°F   30.27 inHg Light air from north-northwest 1 mph
  22:00 04:00 30°F   30.28 inHg Gentle breeze from east-northeast 9 mph
How Close Are We To this Month's Temperature Record ?
Updated Saturday, Dec 16, 2017- 4:30:01 PM

Current Temperature: 48.8°F

December's High: Temperature Record 65.8°F - Set on Tue, Dec 17, 2013 - 1:22:00 PM
We are currently 17°F Less than this Month's record High

December's Low: Temperature Record 20.2°F - Set on Sun, Dec 8, 2013 - 7:26:00 AM
We are currently 28.6°F More than this Month's record Low

Weather History For Saturday, December 16, 2017


On this Day - In Weather History ...
Data courtesy of weatherforyou.com
powered by Cumulus v1.9.3 (1059)
Ambient Weather VWS v14.00
Top Contact Website Map Copyright © 2007 - 2017 Foresthillweather.com Never base important decisions on this or any weather information obtained from the Internet